Location: Unspecified
(0.0000°N, 0.0000°E)
Time: 01:33:56
(UTC+00:00)

deb Explorer IX - Visible Passes

Search period start: 25 May 2024 00:00
Search period end: 04 June 2024 00:00
Orbit: 512 x 890 km, 38.7° (Epoch: 24 May)

Date Brightness Start Highest point End Pass type
(mag) Time Alt. Az. Time Alt. Az. Time Alt. Az.
25 May ? 03:50:18 30° ENE 03:50:18 30° ENE 03:53:21 10° ESE visible
25 May ? 05:30:38 10° W 05:33:42 21° SW 05:36:57 10° S visible
26 May ? 04:33:35 43° SSW 04:33:35 43° SSW 04:37:10 10° SSE visible
